Location: LDNL
(36.4545°S, 141.6685°E)
Time: 16:33:51
(UTC+10:00)

Courier 1B - Pass Details

Date: 15 August 2022
Orbit: 962 x 1209 km, 28.3° (Epoch: 25 September)

Event Time Altitude Azimuth Distance (km) Brightness Sun altitude
Exits shadow 04:36:05 15° 0° (N) 2,763 9.8 -32.8°
Drops below altitude 10° 04:38:00 10° 13° (NNE) 3,098 10.2 -32.4°
Sets 04:41:47 0° 30° (NNE) 4,023 11.0 -31.6°
